Ainsworth, NE

12:29 PM CDT on August 18, 2017 (GMT -0500)
Ainsworth Municipal

Weather History for KANW - September, 2013

Change the Weather History Date:

Friday, September 20, 2013

  Actual Average Record
Temperature  
Mean Temperature 56 °F -  
Max Temperature 72 °F 70 °F 93 °F (2005)
Min Temperature 42 °F 46 °F 37 °F (2006)
Degree Days  
Heating Degree Days 8    
Growing Degree Days 6 (Base 50)    
Moisture  
Dew Point 41 °F    
Average Humidity 63    
Maximum Humidity 91    
Minimum Humidity 27    
Precipitation  
Precipitation 0.00 in - - ()
Sea Level Pressure  
Sea Level Pressure 30.09 in    
Wind  
Wind Speed 6 mph (WNW)    
Max Wind Speed 14 mph    
Max Gust Speed 22 mph    
Visibility 10 miles    
Events      
Averages and records for this station are not official NWS values.
T = Trace of Precipitation, MM = Missing Value Source: NWS Daily Summary

Daily Weather History Graph

Daily Weather History Graph

Search for Another Location

Airport or City:

Trip Planner

Search our weather history database for the weather conditions in past years. The results will help you decide how hot, cold, wet, or windy it might be!

Date:

Astronomy

Sep. 20, 2013 Rise Set
Actual Time 7:25 AM CDT 7:40 PM CDT
Civil Twilight 6:57 AM CDT 8:08 PM CDT
Nautical Twilight 6:24 AM CDT 8:41 PM CDT
Astronomical Twilight 5:50 AM CDT 9:15 PM CDT
Moon 8:11 PM CDT (9/20) 8:44 AM CDT (9/20)
Length of Visible Light 13h 11m
Length of Day
12h 14m
Full, 98% of the Moon is Illuminated
Sep 20
Full
Sep 26
Last Quarter
Oct 4
New
Oct 11
First Quarter
Oct 18
Full

Hourly Weather History & Observations

Time (CDT) Temp. Windchill Dew Point Humidity Pressure Visibility Wind Dir Wind Speed Gust Speed Precip Events Conditions
12:15 AM 47.8 °F - 43.2 °F 84% 30.14 in 10.0 mi WNW 5.8 mph - N/A   Clear
12:35 AM 47.7 °F - 43.2 °F 84% 30.14 in 10.0 mi Calm Calm - N/A   Clear
12:55 AM 46.6 °F - 43.2 °F 88% 30.14 in 10.0 mi West 3.5 mph - N/A   Clear
1:15 AM 46.4 °F 44.3 °F 42.8 °F 87% 30.14 in 10.0 mi West 4.6 mph - N/A   Clear
1:35 AM 46.0 °F 43.9 °F 42.8 °F 88% 30.14 in 10.0 mi West 4.6 mph - N/A   Clear
1:55 AM 45.5 °F 42.5 °F 42.1 °F 88% 30.15 in 10.0 mi WSW 5.8 mph - N/A   Clear
2:15 AM 45.0 °F 41.8 °F 41.9 °F 89% 30.14 in 10.0 mi WSW 5.8 mph - N/A   Clear
2:35 AM 44.8 °F 40.4 °F 42.1 °F 90% 30.14 in 10.0 mi WSW 8.1 mph - N/A   Clear
2:55 AM 45.0 °F 40.6 °F 41.9 °F 89% 30.14 in 10.0 mi West 8.1 mph - N/A   Clear
3:15 AM 45.0 °F 40.6 °F 41.7 °F 88% 30.14 in 10.0 mi WSW 8.1 mph - N/A   Clear
3:35 AM 44.4 °F 40.5 °F 41.2 °F 88% 30.13 in 10.0 mi West 6.9 mph - N/A   Clear
3:55 AM 45.3 °F 41.6 °F 41.5 °F 87% 30.14 in 10.0 mi West 6.9 mph - N/A   Clear
4:15 AM 45.5 °F 41.8 °F 41.2 °F 85% 30.13 in 10.0 mi West 6.9 mph - N/A   Clear
4:35 AM 45.0 °F 40.6 °F 41.0 °F 86% 30.12 in 10.0 mi West 8.1 mph - N/A   Clear
4:55 AM 44.6 °F 40.7 °F 41.0 °F 87% 30.12 in 10.0 mi West 6.9 mph - N/A   Clear
5:15 AM 44.8 °F 41.0 °F 41.0 °F 87% 30.12 in 10.0 mi West 6.9 mph - N/A   Clear
5:35 AM 44.1 °F 39.5 °F 40.6 °F 88% 30.12 in 10.0 mi West 8.1 mph - N/A   Clear
5:55 AM 43.7 °F 40.3 °F 40.6 °F 89% 30.12 in 10.0 mi West 5.8 mph - N/A   Clear
6:15 AM 43.3 °F 40.7 °F 40.5 °F 90% 30.12 in 10.0 mi West 4.6 mph - N/A   Clear
6:35 AM 42.4 °F 39.6 °F 40.1 °F 91% 30.13 in 10.0 mi West 4.6 mph - N/A   Clear
6:55 AM 43.2 °F 40.5 °F 40.6 °F 91% 30.13 in 10.0 mi West 4.6 mph - N/A   Clear
7:15 AM 43.9 °F 40.5 °F 41.0 °F 90% 30.14 in 10.0 mi West 5.8 mph - N/A   Clear
7:35 AM 43.3 °F 39.9 °F 40.5 °F 90% 30.15 in 10.0 mi WSW 5.8 mph - N/A   Clear
7:55 AM 43.9 °F 39.9 °F 41.0 °F 90% 30.15 in 10.0 mi West 6.9 mph - N/A   Clear
8:15 AM 45.3 °F 41.6 °F 41.4 °F 86% 30.15 in 10.0 mi West 6.9 mph - N/A   Clear
8:35 AM 47.3 °F - 41.9 °F 82% 30.15 in 10.0 mi West 8.1 mph - N/A   Clear
8:55 AM 49.8 °F - 42.6 °F 76% 30.15 in 10.0 mi WNW 6.9 mph - N/A   Clear
9:15 AM 51.8 °F - 42.8 °F 71% 30.15 in 10.0 mi WNW 9.2 mph - N/A   Clear
9:35 AM 53.6 °F - 43.0 °F 67% 30.15 in 10.0 mi WNW 9.2 mph - N/A   Clear
9:55 AM 55.2 °F - 43.0 °F 63% 30.15 in 10.0 mi WNW 10.4 mph - N/A   Clear
10:15 AM 57.0 °F - 43.0 °F 59% 30.15 in 10.0 mi WNW 9.2 mph - N/A   Clear
10:35 AM 58.3 °F - 42.4 °F 56% 30.15 in 10.0 mi NW 9.2 mph - N/A   Clear
10:55 AM 59.2 °F - 42.1 °F 53% 30.15 in 10.0 mi NW 12.7 mph - N/A   Clear
11:15 AM 59.9 °F - 42.3 °F 52% 30.15 in 10.0 mi NNW 11.5 mph - N/A   Clear
11:35 AM 61.0 °F - 42.1 °F 50% 30.14 in 10.0 mi NNW 13.8 mph 18.4 mph N/A   Clear
11:55 AM 61.5 °F - 41.7 °F 48% 30.13 in 10.0 mi North 11.5 mph 17.3 mph N/A   Clear
12:15 PM 63.3 °F - 42.1 °F 46% 30.12 in 10.0 mi NW 12.7 mph - N/A   Clear
12:35 PM 63.7 °F - 41.9 °F 45% 30.11 in 10.0 mi NW 13.8 mph 21.9 mph N/A   Clear
12:55 PM 64.8 °F - 41.7 °F 43% 30.10 in 10.0 mi NNW 12.7 mph 17.3 mph N/A   Clear
1:15 PM 65.7 °F - 41.5 °F 41% 30.10 in 10.0 mi WNW 10.4 mph - N/A   Clear
1:35 PM 66.4 °F - 40.6 °F 39% 30.09 in 10.0 mi WNW 6.9 mph - N/A   Clear
1:55 PM 66.9 °F - 40.3 °F 38% 30.08 in 10.0 mi WNW 13.8 mph 17.3 mph N/A   Clear
2:15 PM 68.9 °F - 38.1 °F 32% 30.08 in 10.0 mi NW 11.5 mph 17.3 mph N/A   Clear
2:35 PM 68.7 °F - 38.1 °F 33% 30.07 in 10.0 mi WNW 6.9 mph - N/A   Clear
2:55 PM 69.6 °F - 37.4 °F 31% 30.07 in 10.0 mi WNW 11.5 mph 18.4 mph N/A   Clear
3:15 PM 70.2 °F - 37.6 °F 30% 30.06 in 10.0 mi NW 12.7 mph 17.3 mph N/A   Clear
3:35 PM 70.2 °F - 36.9 °F 30% 30.06 in 10.0 mi WNW 11.5 mph 17.3 mph N/A   Clear
3:55 PM 70.3 °F - 36.5 °F 29% 30.05 in 10.0 mi NW 8.1 mph - N/A   Clear
4:15 PM 71.1 °F - 37.2 °F 29% 30.04 in 10.0 mi NW 5.8 mph - N/A   Clear
4:35 PM 70.9 °F - 36.5 °F 28% 30.03 in 10.0 mi NW 4.6 mph - N/A   Clear
4:55 PM 71.1 °F - 35.8 °F 27% 30.03 in 10.0 mi WNW 5.8 mph - N/A   Clear
5:15 PM 71.6 °F - 36.1 °F 27% 30.03 in 10.0 mi WNW 9.2 mph - N/A   Clear
5:35 PM 71.6 °F - 37.0 °F 28% 30.02 in 10.0 mi NNW 8.1 mph - N/A   Clear
5:55 PM 71.2 °F - 36.1 °F 28% 30.02 in 10.0 mi NW 8.1 mph - N/A   Clear
6:15 PM 70.9 °F - 36.3 °F 28% 30.01 in 10.0 mi WNW 4.6 mph - N/A   Clear
6:35 PM 70.7 °F - 36.3 °F 28% 30.01 in 10.0 mi Calm Calm - N/A   Clear
6:55 PM 69.3 °F - 38.5 °F 32% 30.01 in 10.0 mi North 3.5 mph - N/A   Clear
7:15 PM 67.1 °F - 40.5 °F 38% 30.01 in 10.0 mi Calm Calm - N/A   Clear
7:35 PM 64.9 °F - 43.0 °F 45% 30.01 in 10.0 mi NE 4.6 mph - N/A   Clear
7:55 PM 62.2 °F - 44.8 °F 53% 30.01 in 10.0 mi East 4.6 mph - N/A   Clear
8:15 PM 58.5 °F - 45.5 °F 62% 30.01 in 10.0 mi ESE 4.6 mph - N/A   Clear
8:35 PM 57.6 °F - 44.6 °F 62% 30.01 in 10.0 mi East 5.8 mph - N/A   Clear
8:55 PM 56.8 °F - 44.8 °F 64% 30.01 in 10.0 mi East 5.8 mph - N/A   Clear
9:15 PM 55.4 °F - 44.8 °F 67% 30.01 in 10.0 mi East 5.8 mph - N/A   Clear
9:35 PM 53.6 °F - 44.6 °F 72% 30.02 in 10.0 mi ESE 4.6 mph - N/A   Clear
9:55 PM 53.6 °F - 44.4 °F 71% 30.02 in 10.0 mi ESE 3.5 mph - N/A   Clear
10:15 PM 52.5 °F - 44.6 °F 74% 30.02 in 10.0 mi Calm Calm - N/A   Clear
10:35 PM 52.2 °F - 43.9 °F 73% 30.02 in 10.0 mi East 4.6 mph - N/A   Clear
10:55 PM 50.7 °F - 43.9 °F 77% 30.03 in 10.0 mi Calm Calm - N/A   Clear
11:15 PM 50.5 °F - 43.7 °F 77% 30.03 in 10.0 mi Calm Calm - N/A   Clear
11:35 PM 48.7 °F - 42.8 °F 80% 30.03 in 10.0 mi SE 4.6 mph - N/A   Clear
11:55 PM 49.6 °F - 42.3 °F 76% 30.03 in 10.0 mi SSE 5.8 mph - N/A   Clear